STARLINK-34875

Last updated on Mon Oct 20 2025 00:02:06 GMT+0000 (Coordinated Universal Time)

1 65689U 25212P 25292.25002315 -.02053872 00000+0 -61116-1 0 9998 2 65689 53.1593 282.8878 0001232 75.2641 337.7411 15.37956971 5664
UTC large
Height (km)
Speed (km/s)
/
Latitude / Longitude
Inclination (degrees)
Orbital Period (minutes)
Azimuth
Elevation
Range (km)
Doppler Factor

Next 0 passes for location: London (51.5072 / 0.1276)

Sorry there are no passes over London.